Theta_e
296 296 297 300 301 304 303 306 313 312 315 312 311 316 316 315 317 318 321 321 321 318 316 316 316 317 317 318 319 319 319 318 320 321 320 320 318 319 318 317 318 317 314 316
295 296 295 301 301 305 303 309 312 314 316 314 310 312 316 316 316 318 320 321 321 319 319 317 317 317 321 320 319 318 319 319 319 321 318 318 320 317 317 318 314 316 314 316
295 296 296 301 302 305 303 310 313 314 314 315 310 311 314 317 315 316 318 320 320 320 320 318 317 321 321 320 319 320 319 318 316 320 318 316 319 320 317 316 313 316 316 318
295 296 297 300 301 304 303 311 313 313 316 314 312 311 313 315 316 315 318 320 320 321 320 318 319 322 321 321 318 319 317 318 318 317 317 319 319 319 319 319 317 317 316 317
295 296 299 300 300 304 304 311 313 314 315 313 312 311 312 314 314 315 315 318 320 320 318 317 317 321 320 319 319 318 318 317 318 319 316 316 318 317 316 317 317 316 316 316
295 296 299 300 301 304 305 305 311 316 313 314 314 312 312 313 313 315 314 319 320 320 320 319 318 321 322 320 318 318 318 318 314 318 312 315 315 315 316 316 316 316 315 314
295 296 299 300 301 304 305 304 310 314 315 316 315 314 313 313 313 314 317 314 318 319 321 321 321 320 320 320 319 319 318 317 311 313 310 314 316 315 315 314 312 312 313 314
296 297 298 298 301 302 304 305 310 314 310 316 318 315 316 315 313 316 314 319 320 320 321 318 318 315 316 319 317 318 319 313 313 312 313 315 315 315 311 312 313 312 313 312
296 296 297 297 300 302 303 305 307 312 315 316 317 317 316 316 316 316 321 321 323 322 318 315 318 318 318 320 317 314 315 312 313 312 311 311 313 313 313 311 311 313 313 312
296 296 296 296 301 304 303 303 308 308 312 318 317 317 316 315 315 317 322 322 323 323 310 314 313 316 317 318 316 312 309 309 311 304 306 309 311 314 313 311 310 314 315 315
295 295 295 296 301 304 303 302 303 305 310 316 318 317 316 315 315 317 319 320 318 315 314 315 315 310 315 315 317 313 313 312 310 309 304 313 314 313 312 311 315 316 316 316
294 295 297 300 303 303 303 303 302 305 306 311 314 320 318 315 315 319 321 320 318 319 315 312 313 315 307 313 316 317 316 312 312 313 312 312 314 315 315 315 315 315 315 315
299 297 299 302 303 301 301 302 302 304 306 310 316 321 320 318 317 317 320 320 319 320 320 316 315 314 311 312 310 316 318 317 316 316 314 314 314 314 315 315 314 314 314 314
300 299 300 301 300 299 300 301 303 305 310 312 318 320 319 322 319 320 321 321 322 324 322 311 310 310 314 310 314 314 315 315 315 314 314 314 314 314 314 314 313 313 312 313
299 298 298 298 299 300 301 301 302 309 309 311 318 319 320 322 323 321 322 322 322 321 312 305 313 314 314 311 311 314 314 314 312 311 315 312 313 314 313 312 311 311 312 309
297 296 297 298 301 301 302 301 301 305 305 308 311 318 319 321 322 321 321 321 321 318 319 314 316 317 313 308 308 313 315 316 315 315 315 314 311 310 311 311 308 307 308 305
297 297 298 300 301 300 302 304 309 307 305 307 309 311 318 319 320 320 320 320 318 316 317 316 314 315 312 304 309 313 314 315 315 315 313 306 308 305 307 308 304 303 302 301
298 298 300 301 302 303 304 309 313 311 307 308 307 312 315 316 316 314 317 316 315 314 313 315 310 312 309 309 312 312 313 311 310 311 313 310 306 305 304 304 303 301 299 298
299 301 301 303 304 305 305 309 312 312 311 306 306 311 312 314 313 313 312 311 307 310 306 308 309 306 307 310 311 309 312 312 306 308 308 304 304 303 302 301 299 299 297 296
301 300 303 305 307 308 305 307 310 310 309 310 305 310 310 311 309 306 307 308 305 311 305 311 303 306 307 310 311 310 309 309 308 304 302 303 302 301 299 299 298 298 296 296
301 304 309 310 308 309 307 306 306 306 302 308 310 308 309 311 307 305 307 304 304 309 309 308 308 308 306 308 309 308 308 309 309 308 306 304 302 299 298 298 297 296 295 292
308 310 309 309 310 308 307 303 303 305 306 306 307 308 309 309 308 305 304 305 304 309 306 308 310 306 307 307 308 306 306 307 306 305 304 301 300 299 298 297 295 292 290 290
310 311 309 308 305 306 305 306 306 305 303 307 307 304 307 307 306 303 304 307 307 303 304 307 304 306 305 305 306 305 304 304 303 302 301 299 297 297 297 293 290 290 289 288
310 307 305 305 306 303 302 304 304 303 305 305 304 303 303 305 304 302 307 304 303 301 301 305 304 304 304 304 303 303 302 303 302 300 298 297 297 293 291 290 289 289 288 287
303 303 303 301 298 300 300 301 303 305 305 306 304 304 305 302 304 302 302 307 307 304 304 303 304 303 303 301 301 301 300 299 297 296 296 295 292 291 290 289 288 287 287 286
300 298 301 300 301 301 300 302 302 306 306 305 305 303 304 305 304 305 305 305 305 305 301 302 302 302 302 300 299 297 296 296 295 294 292 291 290 290 289 287 286 286 285 285
298 297 297 298 298 297 298 300 302 304 305 302 297 305 305 301 304 304 301 302 300 299 301 301 301 300 299 298 297 296 295 293 290 290 290 290 289 287 287 286 285 285 284 283
Wind_Speed
51 43 47 40 40 37 36 31 8 27 38 14 7 15 12 13 22 14 6 3 6 5 9 8 9 10 9 6 13 9 6 5 4 8 4 3 4 5 6 5 4 1 4 5
49 46 50 47 46 45 44 24 14 32 41 11 12 8 18 19 13 5 4 5 5 4 2 2 7 6 0 4 6 8 8 2 2 8 7 4 2 6 5 4 4 6 5 6
47 48 52 47 49 49 49 15 8 12 31 29 19 18 18 21 22 21 10 7 7 6 2 4 5 3 3 1 5 13 10 5 7 8 7 3 4 5 5 6 3 4 6 6
49 48 51 52 50 51 52 15 11 21 13 20 17 19 12 17 15 19 13 8 15 9 5 3 5 2 3 2 8 4 5 5 4 5 3 3 1 3 2 4 4 5 7 7
50 45 49 54 51 52 48 10 8 24 7 27 20 21 22 25 20 10 17 15 13 6 8 8 7 7 4 5 1 4 2 2 2 3 3 3 3 3 5 4 3 5 5 6
49 51 51 50 54 55 31 40 23 21 23 18 18 21 22 24 22 18 29 16 14 10 10 18 17 21 20 13 10 6 7 6 3 4 3 4 6 6 7 5 5 5 5 6
48 48 47 48 57 56 33 41 16 12 8 14 19 23 20 24 25 21 21 32 15 19 10 17 14 16 12 9 5 8 7 5 3 3 3 2 7 4 6 6 3 4 7 3
46 44 44 45 58 39 50 32 13 3 7 13 13 23 19 18 29 19 27 15 20 24 11 4 4 5 5 4 7 6 5 5 3 4 3 5 8 3 6 5 2 4 7 6
44 44 46 43 52 37 59 23 26 3 0 11 19 18 28 14 13 7 10 14 8 24 4 3 5 5 5 4 4 6 8 6 5 3 4 6 7 4 5 5 0 1 8 6
46 47 43 38 47 41 60 43 25 2 4 7 35 12 20 31 11 4 4 9 4 5 3 3 3 4 8 6 9 5 3 3 5 2 3 7 8 8 2 5 6 9 12 10
44 40 37 43 43 44 56 48 27 16 6 9 16 29 22 29 33 6 7 7 2 3 3 3 4 3 6 4 7 8 7 6 3 3 3 6 9 3 7 6 14 17 16 18
37 36 35 41 41 49 48 36 39 25 6 9 12 8 22 35 44 28 20 7 8 8 4 2 2 1 2 5 3 2 2 7 6 8 6 5 4 7 15 21 23 17 17 16
38 40 40 44 46 42 46 36 33 23 14 21 8 6 6 24 27 36 11 4 11 11 9 8 3 3 4 4 4 4 2 6 4 4 2 4 16 19 22 19 19 17 15 16
40 43 43 42 39 38 40 32 23 29 7 3 3 4 3 12 26 29 35 20 18 19 13 5 3 4 6 4 4 5 6 9 6 4 3 16 11 18 21 19 16 13 11 9
35 33 36 37 34 36 34 21 33 18 2 4 3 6 5 10 18 24 24 21 18 7 5 4 3 3 4 1 3 1 4 6 5 5 21 8 12 17 21 20 16 12 8 17
31 31 32 34 35 32 30 8 24 43 25 6 2 1 6 6 19 23 23 29 17 6 7 4 8 6 2 4 3 2 4 9 15 10 25 18 25 23 19 17 17 17 18 21
31 30 29 31 27 27 22 11 10 42 30 2 3 2 4 9 15 15 10 10 9 7 7 6 5 7 2 3 3 8 11 15 18 26 32 24 26 18 19 19 20 21 23 23
27 27 30 21 23 22 21 11 5 23 30 6 2 3 3 6 7 6 5 6 7 5 4 6 1 6 5 2 6 19 24 26 28 26 6 23 26 25 22 21 26 29 29 26
26 30 25 24 25 14 29 18 1 22 15 4 2 3 2 5 5 5 5 3 3 3 3 4 5 1 3 4 19 25 31 14 23 19 22 29 27 25 26 29 28 27 26 23
28 27 12 9 11 12 32 13 2 4 6 5 2 4 3 5 3 3 4 5 2 3 3 4 3 2 2 8 20 25 15 22 29 32 24 27 26 28 30 28 25 25 24 20
22 11 3 27 24 12 9 3 4 3 1 2 4 4 4 4 4 3 3 2 1 3 2 4 2 2 3 10 16 19 22 23 20 12 23 23 30 34 32 26 25 23 20 18
12 14 29 18 8 5 5 2 2 2 3 1 3 5 6 6 5 4 1 3 2 3 3 3 2 1 15 14 16 24 25 25 19 23 25 27 27 26 27 28 25 21 18 16
18 7 7 4 1 3 4 4 0 3 3 5 6 3 5 5 6 6 3 3 2 4 2 3 2 9 18 19 20 23 24 25 26 26 27 27 29 26 25 25 21 19 17 14
5 6 5 2 3 3 1 1 2 1 8 16 15 7 3 5 3 2 2 2 2 2 2 4 4 20 24 23 23 25 26 26 28 30 30 29 24 24 23 20 18 15 13 10
5 6 5 4 3 7 4 4 7 9 11 12 11 7 5 2 3 2 2 2 1 4 3 2 13 24 26 24 23 26 27 28 30 30 28 26 25 24 22 17 14 11 8 6
8 10 4 1 5 4 7 12 13 13 13 10 7 3 3 2 3 2 1 5 4 2 1 13 26 28 27 27 28 28 28 27 26 25 24 23 21 20 18 16 11 9 5 2
6 5 13 9 10 6 5 7 6 7 4 2 3 4 1 2 3 2 3 2 2 2 15 21 28 30 29 29 29 27 25 25 25 22 21 20 18 16 14 12 9 5 1 2
Wind_Direction
235 227 225 220 208 200 193 194 198 193 201 175 198 219 195 238 260 269 271 291 244 219 191 187 201 206 206 159 147 154 196 132 182 213 232 124 165 234 179 126 249 174 162 266
227 228 219 213 208 198 189 194 190 176 191 191 212 216 215 225 251 224 242 253 214 187 188 171 187 196 118 164 139 154 172 183 63 349 339 15 177 218 189 109 76 193 143 260
222 222 220 204 205 198 191 194 170 176 196 214 195 194 199 212 233 248 263 282 309 253 220 179 230 173 111 21 118 143 149 145 157 185 211 172 219 261 202 141 123 201 214 235
215 217 217 200 203 196 193 210 195 183 190 205 199 190 195 202 222 215 200 247 235 245 237 174 183 142 93 25 142 110 120 170 163 191 207 198 211 256 260 164 193 159 255 207
212 212 214 199 204 195 194 199 189 173 187 193 196 189 207 198 216 236 213 232 260 244 205 184 190 147 160 191 344 107 69 238 187 230 30 63 194 251 284 245 224 228 234 266
207 209 207 201 200 194 195 216 216 183 204 180 188 205 199 206 201 217 227 191 232 255 234 231 230 191 186 175 154 161 137 135 103 252 343 9 335 222 214 236 239 196 230 239
199 206 204 204 198 194 196 201 211 215 194 192 198 193 197 202 204 212 212 222 236 254 241 134 107 74 94 107 78 132 127 106 99 199 24 335 244 274 228 133 24 87 99 73
195 199 202 211 200 197 197 203 216 227 191 190 180 199 197 202 213 213 232 238 228 227 161 72 65 6 37 352 20 87 130 120 100 140 202 296 302 228 159 159 28 336 136 122
192 196 204 210 200 196 198 196 210 263 70 204 178 190 194 198 204 203 211 232 221 178 87 93 151 173 174 162 104 42 75 63 120 122 149 210 241 268 135 105 187 167 157 162
191 199 206 214 195 189 196 204 207 339 2 236 186 182 191 202 196 185 156 167 140 154 87 129 155 207 166 161 156 172 55 30 143 126 191 286 250 250 132 111 225 157 130 134
195 200 199 212 190 190 194 202 218 211 269 291 203 194 192 200 207 177 151 117 350 75 100 141 217 144 202 118 168 176 153 139 164 103 71 280 210 145 162 179 129 130 116 117
197 198 188 197 185 185 193 198 212 214 293 256 317 215 212 222 207 189 176 188 154 159 108 100 14 305 78 141 212 135 118 173 175 176 208 243 210 154 142 145 134 128 130 134
192 186 188 188 181 182 195 198 215 211 265 296 279 214 213 220 211 208 165 173 169 174 165 154 169 245 132 144 231 116 132 147 130 115 66 108 124 131 137 148 142 140 136 140
170 181 182 173 177 182 188 196 188 201 254 240 294 216 211 204 207 212 208 201 172 160 163 100 139 177 193 204 170 141 195 140 135 77 54 99 126 135 145 142 146 151 144 149
151 154 161 170 173 176 191 201 201 172 275 311 278 129 145 181 178 199 191 185 176 131 90 69 216 218 138 2 74 187 186 165 156 201 182 142 162 158 155 145 137 133 141 142
149 155 163 170 171 177 179 173 216 214 224 327 334 190 66 149 174 169 170 202 168 95 87 42 336 289 174 107 162 287 212 193 164 142 165 151 145 150 157 142 132 130 133 137
155 160 165 166 178 188 169 159 206 213 215 18 302 346 190 123 114 111 120 144 100 150 131 134 276 273 33 95 155 168 128 143 140 150 141 124 146 142 144 143 135 133 126 126
155 162 162 168 172 170 173 190 166 188 192 223 172 246 110 51 72 84 103 101 99 73 135 105 195 295 55 34 136 136 137 133 134 146 152 162 148 143 141 140 139 131 129 131
151 153 162 160 169 166 179 179 203 183 206 194 131 122 178 87 79 90 69 65 84 106 137 195 176 320 196 204 163 152 149 153 145 138 138 144 147 143 142 143 143 139 135 135
154 163 170 146 169 146 180 208 265 236 211 211 114 137 114 112 97 69 98 37 124 138 234 134 80 198 176 149 169 162 164 157 153 135 131 146 144 144 145 151 149 145 143 144
166 185 104 120 125 90 144 234 226 211 36 53 96 106 120 69 114 129 82 136 79 122 226 142 146 197 212 152 139 159 160 159 162 168 163 161 154 153 154 151 150 150 150 149
156 120 111 112 113 144 179 210 329 69 166 82 104 95 98 77 77 91 58 113 89 164 151 103 183 223 158 157 145 155 165 165 155 156 152 158 159 159 155 153 152 151 149 143
135 94 70 98 118 105 159 194 253 142 169 146 134 88 93 96 73 64 69 70 186 102 62 200 204 126 138 145 147 150 159 157 150 151 156 157 151 153 157 153 151 149 146 143
114 126 107 137 122 89 106 136 92 126 136 126 104 79 85 92 73 97 97 245 109 86 139 219 168 145 153 155 157 153 149 157 158 155 152 149 156 154 150 149 146 150 150 146
69 55 63 50 103 73 68 99 103 107 109 108 93 71 86 68 100 129 194 111 118 191 230 159 143 142 151 150 157 159 156 153 148 149 151 151 151 150 146 148 151 155 152 150
47 42 58 11 72 43 57 74 69 102 96 82 68 93 82 94 125 145 151 139 193 178 170 135 138 146 155 156 158 152 151 152 152 153 152 148 150 153 153 151 155 151 147 151
38 20 41 52 66 60 42 62 61 102 92 77 82 75 95 123 79 69 15 61 5 60 119 133 150 155 154 157 156 154 155 153 148 145 150 151 154 156 157 159 155 152 140 330